When you browse on this site, cookies collect data to enhance your experience and personalize the content and advertising you see.
Visit our Privacy Policy to learn more. By continuing to use the site, you agree to this use of cookies and data.
  • In Slovakia
  • List of Countries
  • For 7 days
  • Water Temperature
  • Satellite Maps
  • Weather Map
  • Weather Widgets
  • user-avatar
    Login

    Hourly Weather Veliko Tarnovo

    Today, 23 March, Saturday

    Time Temperature Precipitation Wind Pressure Humidity
    00:00 +9°C° 0 mm 1 mps 745 mmHg 62%
    01:00 +9°C° 0 mm 1 mps 745 mmHg 63%
    02:00 +8°C° 0 mm 1 mps 745 mmHg 63%
    03:00 +8°C° 0 mm 1 mps 745 mmHg 64%
    04:00 +7°C° 0 mm 0 mps 745 mmHg 65%
    05:00 +6°C° 0 mm 0 mps 745 mmHg 67%
    06:00 +7°C° 0 mm 0 mps 745 mmHg 66%
    07:00 +8°C° 0 mm 0 mps 745 mmHg 64%
    08:00 +9°C° 0 mm 0 mps 745 mmHg 63%
    09:00 +12°C° 0 mm 1 mps 745 mmHg 59%
    10:00 +13°C° 0 mm 1 mps 745 mmHg 55%
    11:00 +15°C° 0 mm 1 mps 745 mmHg 50%
    12:00 +16°C° 0 mm 1 mps 744 mmHg 50%
    13:00 +16°C° 0 mm 2 mps 744 mmHg 49%
    14:00 +16°C° 0 mm 3 mps 744 mmHg 48%
    15:00 +16°C° 0 mm 3 mps 744 mmHg 50%
    16:00 +14°C° 0 mm 3 mps 743 mmHg 52%
    17:00 +14°C° 0 mm 3 mps 743 mmHg 54%
    18:00 +12°C° 0 mm 3 mps 743 mmHg 59%
    19:00 +11°C° 0 mm 3 mps 744 mmHg 64%
    20:00 +9°C° 0 mm 3 mps 744 mmHg 69%
    21:00 +9°C° 0 mm 2 mps 744 mmHg 65%
    22:00 +9°C° 0 mm 2 mps 745 mmHg 60%
    23:00 +9°C° 0 mm 2 mps 745 mmHg 55%

    Tomorrow, 24 March, Sunday

    Time Temperature Precipitation Wind Pressure Humidity
    00:00 +9°C° 0 mm 2 mps 745 mmHg 54%
    01:00 +9°C° 0 mm 2 mps 745 mmHg 52%
    02:00 +9°C° 0 mm 1 mps 745 mmHg 51%
    03:00 +9°C° 0 mm 1 mps 744 mmHg 49%
    04:00 +8°C° 0 mm 1 mps 744 mmHg 48%
    05:00 +8°C° 0 mm 1 mps 744 mmHg 47%
    06:00 +8°C° 0 mm 1 mps 744 mmHg 44%
    07:00 +9°C° 0 mm 1 mps 744 mmHg 42%
    08:00 +9°C° 0 mm 1 mps 744 mmHg 39%
    09:00 +10°C° 0 mm 1 mps 744 mmHg 38%
    10:00 +12°C° 0 mm 1 mps 744 mmHg 37%
    11:00 +13°C° 0 mm 2 mps 744 mmHg 36%
    12:00 +14°C° 0 mm 2 mps 744 mmHg 35%
    13:00 +14°C° 0 mm 2 mps 743 mmHg 34%
    14:00 +15°C° 0 mm 2 mps 743 mmHg 33%
    15:00 +15°C° 0 mm 2 mps 742 mmHg 34%
    16:00 +15°C° 0 mm 1 mps 742 mmHg 35%
    17:00 +14°C° 0 mm 1 mps 742 mmHg 35%
    18:00 +13°C° 0 mm 1 mps 742 mmHg 39%
    19:00 +12°C° 0 mm 1 mps 742 mmHg 44%
    20:00 +10°C° 0 mm 1 mps 742 mmHg 48%
    21:00 +10°C° 0 mm 1 mps 742 mmHg 48%
    22:00 +9°C° 0 mm 1 mps 742 mmHg 48%
    23:00 +9°C° 0 mm 1 mps 742 mmHg 48%

    Day after tomorrow, 25 March, Monday

    Time Temperature Precipitation Wind Pressure Humidity
    00:00 +9°C° 0 mm 1 mps 742 mmHg 50%
    01:00 +7°C° 0 mm 2 mps 741 mmHg 51%
    02:00 +7°C° 0 mm 2 mps 741 mmHg 52%
    03:00 +7°C° 0 mm 2 mps 741 mmHg 54%
    04:00 +7°C° 0 mm 2 mps 740 mmHg 55%
    05:00 +6°C° 0 mm 2 mps 740 mmHg 56%
    06:00 +7°C° 0 mm 2 mps 740 mmHg 55%
    07:00 +8°C° 0 mm 2 mps 740 mmHg 54%
    08:00 +9°C° 0 mm 2 mps 739 mmHg 53%
    09:00 +13°C° 0 mm 2 mps 739 mmHg 45%
    10:00 +15°C° 0 mm 2 mps 739 mmHg 38%
    11:00 +18°C° 0 mm 2 mps 739 mmHg 30%
    12:00 +18°C° 0 mm 3 mps 738 mmHg 31%
    13:00 +19°C° 0 mm 3 mps 737 mmHg 31%
    14:00 +20°C° 0 mm 4 mps 737 mmHg 32%
    15:00 +19°C° 0 mm 4 mps 736 mmHg 35%
    16:00 +19°C° 0 mm 4 mps 736 mmHg 39%
    17:00 +18°C° 0 mm 4 mps 735 mmHg 42%
    18:00 +17°C° 0 mm 3 mps 735 mmHg 48%
    19:00 +15°C° 0 mm 2 mps 735 mmHg 53%
    20:00 +13°C° 0 mm 2 mps 735 mmHg 59%
    21:00 +13°C° 0 mm 2 mps 735 mmHg 60%
    22:00 +13°C° 0 mm 2 mps 735 mmHg 60%
    23:00 +12°C° 0 mm 2 mps 735 mmHg 61%

    26 March, Tuesday

    Time Temperature Precipitation Wind Pressure Humidity
    00:00 +12°C° 0 mm 2 mps 735 mmHg 63%
    01:00 +10°C° 0 mm 2 mps 735 mmHg 64%
    02:00 +10°C° 0 mm 2 mps 735 mmHg 65%
    03:00 +10°C° 0 mm 2 mps 735 mmHg 67%
    04:00 +9°C° 0 mm 2 mps 734 mmHg 69%
    05:00 +9°C° 0 mm 2 mps 734 mmHg 71%
    06:00 +8°C° 0 mm 4 mps 735 mmHg 70%
    07:00 +8°C° 0 mm 6 mps 735 mmHg 70%
    08:00 +7°C° 0 mm 8 mps 735 mmHg 69%
    09:00 +7°C° 0.1 mm 8 mps 736 mmHg 66%
    10:00 +8°C° 0.1 mm 7 mps 736 mmHg 63%
    11:00 +8°C° 0.1 mm 7 mps 736 mmHg 60%
    12:00 +9°C° 0 mm 7 mps 737 mmHg 57%
    13:00 +9°C° 0 mm 7 mps 737 mmHg 55%
    14:00 +10°C° 0 mm 6 mps 737 mmHg 52%
    15:00 +9°C° 0.2 mm 5 mps 737 mmHg 60%
    16:00 +8°C° 0.2 mm 4 mps 737 mmHg 68%
    17:00 +8°C° 0.2 mm 3 mps 737 mmHg 76%
    18:00 +7°C° 0 mm 2 mps 738 mmHg 78%
    19:00 +7°C° 0 mm 2 mps 738 mmHg 81%
    20:00 +7°C° 0 mm 1 mps 739 mmHg 83%
    21:00 +7°C° 0 mm 1 mps 739 mmHg 84%
    22:00 +6°C° 0 mm 1 mps 739 mmHg 85%
    23:00 +5°C° 0 mm 0 mps 740 mmHg 86%

    27 March, Wednesday

    Time Temperature Precipitation Wind Pressure Humidity
    00:00 +6°C° 0.1 mm 1 mps 740 mmHg 84%
    01:00 +6°C° 0.1 mm 1 mps 740 mmHg 83%
    02:00 +6°C° 0.1 mm 1 mps 740 mmHg 81%
    03:00 +5°C° 0.1 mm 1 mps 741 mmHg 81%
    04:00 +5°C° 0.1 mm 1 mps 741 mmHg 80%
    05:00 +5°C° 0.1 mm 1 mps 741 mmHg 80%
    06:00 +4°C° 0 mm 2 mps 741 mmHg 79%
    07:00 +4°C° 0 mm 2 mps 742 mmHg 78%
    08:00 +3°C° 0 mm 3 mps 742 mmHg 77%
    09:00 +4°C° 0 mm 3 mps 743 mmHg 74%
    10:00 +5°C° 0 mm 3 mps 743 mmHg 71%
    11:00 +5°C° 0 mm 4 mps 743 mmHg 68%
    12:00 +7°C° 0 mm 3 mps 743 mmHg 64%
    13:00 +8°C° 0 mm 3 mps 743 mmHg 60%
    14:00 +9°C° 0 mm 3 mps 743 mmHg 56%
    15:00 +9°C° 0 mm 3 mps 743 mmHg 54%
    16:00 +9°C° 0 mm 3 mps 743 mmHg 51%
    17:00 +9°C° 0 mm 3 mps 743 mmHg 49%
    18:00 +8°C° 0 mm 3 mps 744 mmHg 54%
    19:00 +6°C° 0 mm 2 mps 744 mmHg 59%
    20:00 +6°C° 0 mm 1 mps 745 mmHg 63%
    21:00 +6°C° 0 mm 1 mps 745 mmHg 64%
    22:00 +5°C° 0 mm 1 mps 745 mmHg 65%
    23:00 +5°C° 0 mm 1 mps 745 mmHg 66%

    28 March, Thursday

    Time Temperature Precipitation Wind Pressure Humidity
    00:00 +4°C° 0 mm 1 mps 746 mmHg 66%
    01:00 +3°C° 0 mm 0 mps 746 mmHg 66%
    02:00 +2°C° 0 mm 0 mps 746 mmHg 66%
    03:00 +3°C° 0 mm 1 mps 746 mmHg 67%
    04:00 +3°C° 0 mm 1 mps 746 mmHg 67%
    05:00 +2°C° 0 mm 1 mps 747 mmHg 68%
    06:00 +3°C° 0 mm 1 mps 747 mmHg 65%
    07:00 +4°C° 0 mm 1 mps 748 mmHg 61%
    08:00 +5°C° 0 mm 1 mps 748 mmHg 57%
    09:00 +5°C° 0 mm 2 mps 748 mmHg 54%
    10:00 +7°C° 0 mm 3 mps 748 mmHg 50%
    11:00 +7°C° 0 mm 4 mps 749 mmHg 46%
    12:00 +8°C° 0 mm 4 mps 748 mmHg 48%
    13:00 +8°C° 0 mm 4 mps 748 mmHg 49%
    14:00 +8°C° 0 mm 4 mps 748 mmHg 51%
    15:00 +8°C° 0.1 mm 4 mps 748 mmHg 52%
    16:00 +8°C° 0.1 mm 4 mps 748 mmHg 53%
    17:00 +7°C° 0.1 mm 4 mps 748 mmHg 55%
    18:00 +7°C° 0 mm 3 mps 748 mmHg 59%
    19:00 +6°C° 0 mm 2 mps 749 mmHg 63%
    20:00 +5°C° 0 mm 2 mps 749 mmHg 67%
    21:00 +5°C° 0 mm 1 mps 749 mmHg 68%
    22:00 +4°C° 0 mm 1 mps 749 mmHg 68%
    23:00 +4°C° 0 mm 1 mps 750 mmHg 69%
    Show more